Wetterdaten: Dienstag, 08.12.2015
Datum Zeit Temp. A. Feuchte A. Luftdruck Regen Wind Richtung Richtung Sonnenschein ET UV Solar Taupunkt Windchill Windben Empfang
08.12.2015 00:00 2,1 C 99 % 1034,8 hPa 0,0 l/m 5,9 km/h (2 Bft) O 84 0 min 0,000 mm 0,0 UV-I 0 W/m 2,0 C 2,1 C 8,0 km/h (2 Bft) 97,39 %
08.12.2015 00:05 2,2 C 99 % 1034,8 hPa 0,0 l/m 7,0 km/h (2 Bft) NO 54 0 min 0,000 mm 0,0 UV-I 0 W/m 2,1 C 1,6 C 9,7 km/h (2 Bft) 99,11 %
08.12.2015 00:10 2,2 C 99 % 1034,8 hPa 0,0 l/m 8,1 km/h (2 Bft) NO 56 0 min 0,000 mm 0,0 UV-I 0 W/m 2,1 C 0,6 C 14,5 km/h (3 Bft) 99,07 %
08.12.2015 00:15 2,3 C 99 % 1034,8 hPa 0,0 l/m 7,5 km/h (2 Bft) O-NO 68 0 min 0,000 mm 0,0 UV-I 0 W/m 2,2 C 1,2 C 14,5 km/h (3 Bft) 99,19 %
08.12.2015 00:20 2,3 C 99 % 1034,8 hPa 0,0 l/m 5,7 km/h (1 Bft) O-NO 76 0 min 0,000 mm 0,0 UV-I 0 W/m 2,2 C 2,3 C 11,3 km/h (2 Bft) 100,00 %
08.12.2015 00:25 2,3 C 99 % 1034,7 hPa 0,0 l/m 6,3 km/h (2 Bft) NO 42 0 min 0,000 mm 0,0 UV-I 0 W/m 2,2 C 2,3 C 9,7 km/h (2 Bft) 98,39 %
08.12.2015 00:30 2,4 C 99 % 1034,7 hPa 0,0 l/m 7,7 km/h (2 Bft) O-NO 61 0 min 0,000 mm 0,0 UV-I 0 W/m 2,3 C 1,1 C 12,9 km/h (3 Bft) 100,00 %
08.12.2015 00:35 2,4 C 99 % 1034,7 hPa 0,0 l/m 5,6 km/h (1 Bft) O-NO 57 0 min 0,000 mm 0,0 UV-I 0 W/m 2,3 C 2,4 C 11,3 km/h (2 Bft) 99,15 %
08.12.2015 00:40 2,4 C 99 % 1034,6 hPa 0,0 l/m 7,0 km/h (2 Bft) O-NO 61 0 min 0,000 mm 0,0 UV-I 0 W/m 2,3 C 1,8 C 11,3 km/h (2 Bft) 98,35 %
08.12.2015 00:45 2,5 C 99 % 1034,6 hPa 0,0 l/m 7,8 km/h (2 Bft) O-NO 63 0 min 0,000 mm 0,0 UV-I 0 W/m 2,4 C 1,2 C 12,9 km/h (3 Bft) 97,50 %
08.12.2015 00:50 2,5 C 99 % 1034,5 hPa 0,0 l/m 7,7 km/h (2 Bft) O-NO 65 0 min 0,000 mm 0,0 UV-I 0 W/m 2,4 C 1,3 C 12,9 km/h (3 Bft) 100,00 %
08.12.2015 00:55 2,5 C 99 % 1034,5 hPa 0,0 l/m 6,3 km/h (2 Bft) O-NO 69 0 min 0,000 mm 0,0 UV-I 0 W/m 2,4 C 2,5 C 9,7 km/h (2 Bft) 98,31 %
08.12.2015 01:00 2,5 C 99 % 1034,4 hPa 0,0 l/m 4,5 km/h (1 Bft) O-NO 72 0 min 0,000 mm 0,0 UV-I 0 W/m 2,4 C 2,5 C 11,3 km/h (2 Bft) 100,00 %
08.12.2015 01:05 2,5 C 99 % 1034,4 hPa 0,0 l/m 5,5 km/h (1 Bft) O-NO 59 0 min 0,000 mm 0,0 UV-I 0 W/m 2,4 C 2,5 C 8,0 km/h (2 Bft) 100,00 %
08.12.2015 01:10 2,5 C 99 % 1034,4 hPa 0,0 l/m 6,3 km/h (2 Bft) O-NO 72 0 min 0,000 mm 0,0 UV-I 0 W/m 2,4 C 2,5 C 11,3 km/h (2 Bft) 98,26 %
08.12.2015 01:15 2,4 C 99 % 1034,4 hPa 0,0 l/m 8,5 km/h (2 Bft) O 90 0 min 0,000 mm 0,0 UV-I 0 W/m 2,3 C 0,4 C 12,9 km/h (3 Bft) 100,00 %
08.12.2015 01:20 2,4 C 99 % 1034,4 hPa 0,0 l/m 6,8 km/h (2 Bft) O-NO 61 0 min 0,000 mm 0,0 UV-I 0 W/m 2,3 C 2,0 C 11,3 km/h (2 Bft) 97,52 %
08.12.2015 01:25 2,3 C 99 % 1034,4 hPa 0,0 l/m 9,0 km/h (2 Bft) O-NO 59 0 min 0,000 mm 0,0 UV-I 0 W/m 2,2 C -0,1 C 14,5 km/h (3 Bft) 96,58 %
08.12.2015 01:30 2,2 C 99 % 1034,4 hPa 0,0 l/m 9,9 km/h (2 Bft) O-NO 71 0 min 0,000 mm 0,0 UV-I 0 W/m 2,1 C -0,9 C 14,5 km/h (3 Bft) 98,17 %
08.12.2015 01:35 2,2 C 99 % 1034,4 hPa 0,0 l/m 9,1 km/h (2 Bft) O-NO 65 0 min 0,000 mm 0,0 UV-I 0 W/m 2,1 C -0,3 C 14,5 km/h (3 Bft) 97,52 %
08.12.2015 01:40 2,1 C 99 % 1034,4 hPa 0,0 l/m 9,9 km/h (2 Bft) O-NO 68 0 min 0,000 mm 0,0 UV-I 0 W/m 2,0 C -1,1 C 14,5 km/h (3 Bft) 97,50 %
08.12.2015 01:45 2,1 C 99 % 1034,4 hPa 0,0 l/m 9,0 km/h (2 Bft) NO 55 0 min 0,000 mm 0,0 UV-I 0 W/m 2,0 C -0,3 C 16,1 km/h (3 Bft) 95,54 %
08.12.2015 01:50 2,1 C 99 % 1034,3 hPa 0,0 l/m 8,8 km/h (2 Bft) O-NO 57 0 min 0,000 mm 0,0 UV-I 0 W/m 2,0 C -0,2 C 16,1 km/h (3 Bft) 95,97 %
08.12.2015 01:55 2,0 C 99 % 1034,2 hPa 0,0 l/m 12,0 km/h (2 Bft) O-NO 69 0 min 0,000 mm 0,0 UV-I 0 W/m 1,9 C -2,7 C 19,3 km/h (3 Bft) 98,29 %
08.12.2015 02:00 1,9 C 99 % 1034,3 hPa 0,0 l/m 11,3 km/h (2 Bft) O-NO 68 0 min 0,000 mm 0,0 UV-I 0 W/m 1,8 C -2,3 C 16,1 km/h (3 Bft) 99,11 %
08.12.2015 02:05 1,9 C 99 % 1034,3 hPa 0,0 l/m 11,0 km/h (2 Bft) O-NO 67 0 min 0,000 mm 0,0 UV-I 0 W/m 1,8 C -2,1 C 17,7 km/h (3 Bft) 100,00 %
08.12.2015 02:10 1,9 C 99 % 1034,2 hPa 0,0 l/m 11,5 km/h (2 Bft) O-NO 71 0 min 0,000 mm 0,0 UV-I 0 W/m 1,8 C -2,5 C 16,1 km/h (3 Bft) 97,25 %
08.12.2015 02:15 1,9 C 99 % 1034,2 hPa 0,0 l/m 9,1 km/h (2 Bft) O-NO 71 0 min 0,000 mm 0,0 UV-I 0 W/m 1,8 C -0,6 C 16,1 km/h (3 Bft) 98,35 %
08.12.2015 02:20 1,9 C 99 % 1034,2 hPa 0,0 l/m 8,7 km/h (2 Bft) O 80 0 min 0,000 mm 0,0 UV-I 0 W/m 1,8 C -0,3 C 16,1 km/h (3 Bft) 98,33 %
08.12.2015 02:25 1,8 C 99 % 1034,0 hPa 0,0 l/m 8,7 km/h (2 Bft) NO 52 0 min 0,000 mm 0,0 UV-I 0 W/m 1,7 C -0,4 C 12,9 km/h (3 Bft) 100,00 %
08.12.2015 02:30 1,8 C 99 % 1034,1 hPa 0,0 l/m 7,7 km/h (2 Bft) O-NO 57 0 min 0,000 mm 0,0 UV-I 0 W/m 1,7 C 0,5 C 12,9 km/h (3 Bft) 100,00 %
08.12.2015 02:35 1,8 C 99 % 1034,1 hPa 0,0 l/m 6,6 km/h (2 Bft) O-NO 67 0 min 0,000 mm 0,0 UV-I 0 W/m 1,7 C 1,6 C 9,7 km/h (2 Bft) 100,00 %
08.12.2015 02:40 1,8 C 99 % 1034,0 hPa 0,0 l/m 8,9 km/h (2 Bft) O-SO 103 0 min 0,000 mm 0,0 UV-I 0 W/m 1,7 C -0,6 C 14,5 km/h (3 Bft) 99,15 %
08.12.2015 02:45 1,7 C 99 % 1033,9 hPa 0,0 l/m 9,0 km/h (2 Bft) O-NO 74 0 min 0,000 mm 0,0 UV-I 0 W/m 1,6 C -0,8 C 14,5 km/h (3 Bft) 98,35 %
08.12.2015 02:50 1,6 C 99 % 1033,8 hPa 0,0 l/m 10,5 km/h (2 Bft) O-NO 66 0 min 0,000 mm 0,0 UV-I 0 W/m 1,5 C -2,1 C 16,1 km/h (3 Bft) 100,00 %
08.12.2015 02:55 1,5 C 99 % 1033,8 hPa 0,0 l/m 8,1 km/h (2 Bft) O-NO 68 0 min 0,000 mm 0,0 UV-I 0 W/m 1,4 C -0,2 C 14,5 km/h (3 Bft) 97,46 %
08.12.2015 03:00 1,5 C 99 % 1033,8 hPa 0,0 l/m 8,9 km/h (2 Bft) O-NO 63 0 min 0,000 mm 0,0 UV-I 0 W/m 1,4 C -0,9 C 16,1 km/h (3 Bft) 99,06 %
08.12.2015 03:05 1,5 C 99 % 1033,8 hPa 0,0 l/m 7,2 km/h (2 Bft) NO 35 0 min 0,000 mm 0,0 UV-I 0 W/m 1,4 C 0,7 C 12,9 km/h (3 Bft) 97,56 %
08.12.2015 03:10 1,5 C 99 % 1033,8 hPa 0,0 l/m 9,1 km/h (2 Bft) N-NO 27 0 min 0,000 mm 0,0 UV-I 0 W/m 1,4 C -1,1 C 14,5 km/h (3 Bft) 98,26 %
08.12.2015 03:15 1,4 C 99 % 1033,8 hPa 0,0 l/m 9,1 km/h (2 Bft) O 87 0 min 0,000 mm 0,0 UV-I 0 W/m 1,3 C -1,2 C 14,5 km/h (3 Bft) 100,00 %
08.12.2015 03:20 1,3 C 99 % 1033,8 hPa 0,0 l/m 6,7 km/h (2 Bft) O-NO 69 0 min 0,000 mm 0,0 UV-I 0 W/m 1,2 C 1,0 C 11,3 km/h (2 Bft) 99,08 %
08.12.2015 03:25 1,2 C 99 % 1033,7 hPa 0,0 l/m 5,8 km/h (2 Bft) NO 55 0 min 0,000 mm 0,0 UV-I 0 W/m 1,1 C 1,2 C 9,7 km/h (2 Bft) 96,69 %
08.12.2015 03:30 1,2 C 99 % 1033,7 hPa 0,0 l/m 10,6 km/h (2 Bft) O 90 0 min 0,000 mm 0,0 UV-I 0 W/m 1,1 C -2,6 C 16,1 km/h (3 Bft) 95,93 %
08.12.2015 03:35 1,2 C 99 % 1033,7 hPa 0,0 l/m 11,3 km/h (2 Bft) NO 49 0 min 0,000 mm 0,0 UV-I 0 W/m 1,1 C -3,1 C 17,7 km/h (3 Bft) 97,25 %
08.12.2015 03:40 1,1 C 99 % 1033,6 hPa 0,0 l/m 9,4 km/h (2 Bft) O-NO 69 0 min 0,000 mm 0,0 UV-I 0 W/m 1,0 C -1,7 C 16,1 km/h (3 Bft) 95,24 %
08.12.2015 03:45 1,0 C 99 % 1033,7 hPa 0,0 l/m 8,8 km/h (2 Bft) O-NO 69 0 min 0,000 mm 0,0 UV-I 0 W/m 0,9 C -1,3 C 17,7 km/h (3 Bft) 97,46 %
08.12.2015 03:50 0,8 C 99 % 1033,5 hPa 0,0 l/m 10,6 km/h (2 Bft) NO 50 0 min 0,000 mm 0,0 UV-I 0 W/m 0,7 C -3,0 C 16,1 km/h (3 Bft) 96,23 %
08.12.2015 03:55 0,7 C 99 % 1033,6 hPa 0,0 l/m 9,6 km/h (2 Bft) O-NO 78 0 min 0,000 mm 0,0 UV-I 0 W/m 0,6 C -2,3 C 14,5 km/h (3 Bft) 97,50 %
08.12.2015 04:00 0,7 C 99 % 1033,6 hPa 0,0 l/m 8,2 km/h (2 Bft) O 86 0 min 0,000 mm 0,0 UV-I 0 W/m 0,6 C -1,1 C 14,5 km/h (3 Bft) 100,00 %
08.12.2015 04:05 0,7 C 99 % 1033,6 hPa 0,0 l/m 7,2 km/h (2 Bft) O-NO 65 0 min 0,000 mm 0,0 UV-I 0 W/m 0,6 C -0,1 C 14,5 km/h (3 Bft) 97,30 %
08.12.2015 04:10 0,7 C 99 % 1033,5 hPa 0,0 l/m 9,7 km/h (2 Bft) O-NO 69 0 min 0,000 mm 0,0 UV-I 0 W/m 0,6 C -2,4 C 17,7 km/h (3 Bft) 98,21 %
08.12.2015 04:15 0,7 C 99 % 1033,5 hPa 0,0 l/m 7,5 km/h (2 Bft) O-NO 69 0 min 0,000 mm 0,0 UV-I 0 W/m 0,6 C -0,4 C 14,5 km/h (3 Bft) 99,15 %
08.12.2015 04:20 0,7 C 99 % 1033,5 hPa 0,0 l/m 10,1 km/h (2 Bft) O-SO 113 0 min 0,000 mm 0,0 UV-I 0 W/m 0,6 C -2,8 C 17,7 km/h (3 Bft) 99,08 %
08.12.2015 04:25 0,7 C 99 % 1033,5 hPa 0,0 l/m 9,7 km/h (2 Bft) O-NO 66 0 min 0,000 mm 0,0 UV-I 0 W/m 0,6 C -2,4 C 17,7 km/h (3 Bft) 99,22 %
08.12.2015 04:30 0,7 C 99 % 1033,5 hPa 0,0 l/m 11,2 km/h (2 Bft) NO 48 0 min 0,000 mm 0,0 UV-I 0 W/m 0,6 C -3,6 C 17,7 km/h (3 Bft) 99,11 %
08.12.2015 04:35 0,7 C 99 % 1033,5 hPa 0,0 l/m 12,0 km/h (2 Bft) NO 38 0 min 0,000 mm 0,0 UV-I 0 W/m 0,6 C -4,2 C 17,7 km/h (3 Bft) 100,00 %
08.12.2015 04:40 0,7 C 99 % 1033,5 hPa 0,0 l/m 8,2 km/h (2 Bft) O-NO 71 0 min 0,000 mm 0,0 UV-I 0 W/m 0,6 C -1,1 C 12,9 km/h (3 Bft) 100,00 %
08.12.2015 04:45 0,7 C 99 % 1033,5 hPa 0,0 l/m 10,4 km/h (2 Bft) NO 50 0 min 0,000 mm 0,0 UV-I 0 W/m 0,6 C -3,0 C 19,3 km/h (3 Bft) 100,00 %
08.12.2015 04:50 0,7 C 99 % 1033,5 hPa 0,0 l/m 11,5 km/h (2 Bft) O-NO 78 0 min 0,000 mm 0,0 UV-I 0 W/m 0,6 C -3,8 C 16,1 km/h (3 Bft) 100,00 %
08.12.2015 04:55 0,7 C 99 % 1033,5 hPa 0,0 l/m 7,9 km/h (2 Bft) O-NO 62 0 min 0,000 mm 0,0 UV-I 0 W/m 0,6 C -0,8 C 14,5 km/h (3 Bft) 100,00 %
08.12.2015 05:00 0,7 C 99 % 1033,5 hPa 0,0 l/m 8,2 km/h (2 Bft) O-NO 61 0 min 0,000 mm 0,0 UV-I 0 W/m 0,6 C -1,1 C 16,1 km/h (3 Bft) 100,00 %
08.12.2015 05:05 0,7 C 99 % 1033,5 hPa 0,0 l/m 10,5 km/h (2 Bft) O-NO 59 0 min 0,000 mm 0,0 UV-I 0 W/m 0,6 C -3,1 C 16,1 km/h (3 Bft) 98,39 %
08.12.2015 05:10 0,7 C 99 % 1033,6 hPa 0,0 l/m 9,1 km/h (2 Bft) NO 56 0 min 0,000 mm 0,0 UV-I 0 W/m 0,6 C -1,9 C 17,7 km/h (3 Bft) 100,00 %
08.12.2015 05:15 0,7 C 99 % 1033,6 hPa 0,0 l/m 11,4 km/h (2 Bft) NO 56 0 min 0,000 mm 0,0 UV-I 0 W/m 0,6 C -3,8 C 19,3 km/h (3 Bft) 100,00 %
08.12.2015 05:20 0,7 C 99 % 1033,6 hPa 0,0 l/m 13,3 km/h (3 Bft) O 88 0 min 0,000 mm 0,0 UV-I 0 W/m 0,6 C -5,1 C 19,3 km/h (3 Bft) 99,15 %
08.12.2015 05:25 0,7 C 99 % 1033,7 hPa 0,0 l/m 13,4 km/h (3 Bft) O-NO 63 0 min 0,000 mm 0,0 UV-I 0 W/m 0,6 C -5,1 C 19,3 km/h (3 Bft) 98,26 %
08.12.2015 05:30 0,7 C 99 % 1033,6 hPa 0,0 l/m 13,9 km/h (3 Bft) O-NO 67 0 min 0,000 mm 0,0 UV-I 0 W/m 0,6 C -5,5 C 20,9 km/h (4 Bft) 98,33 %
08.12.2015 05:35 0,7 C 99 % 1033,7 hPa 0,0 l/m 15,2 km/h (3 Bft) O-NO 78 0 min 0,000 mm 0,0 UV-I 0 W/m 0,6 C -6,3 C 22,5 km/h (4 Bft) 97,46 %
08.12.2015 05:40 0,7 C 99 % 1033,7 hPa 0,0 l/m 16,6 km/h (3 Bft) O 81 0 min 0,000 mm 0,0 UV-I 0 W/m 0,6 C -7,0 C 24,1 km/h (4 Bft) 97,37 %
08.12.2015 05:45 0,6 C 99 % 1033,7 hPa 0,0 l/m 15,9 km/h (3 Bft) O 88 0 min 0,000 mm 0,0 UV-I 0 W/m 0,5 C -6,8 C 24,1 km/h (4 Bft) 95,97 %
08.12.2015 05:50 0,6 C 99 % 1033,8 hPa 0,0 l/m 12,9 km/h (3 Bft) O-NO 69 0 min 0,000 mm 0,0 UV-I 0 W/m 0,5 C -4,9 C 17,7 km/h (3 Bft) 96,33 %
08.12.2015 05:55 0,6 C 99 % 1033,8 hPa 0,0 l/m 14,3 km/h (3 Bft) O 79 0 min 0,000 mm 0,0 UV-I 0 W/m 0,5 C -5,8 C 22,5 km/h (4 Bft) 95,93 %
08.12.2015 06:00 0,6 C 99 % 1033,8 hPa 0,0 l/m 16,5 km/h (3 Bft) O 84 0 min 0,000 mm 0,0 UV-I 0 W/m 0,5 C -7,1 C 22,5 km/h (4 Bft) 96,69 %
08.12.2015 06:05 0,6 C 99 % 1033,7 hPa 0,0 l/m 16,6 km/h (3 Bft) O 93 0 min 0,000 mm 0,0 UV-I 0 W/m 0,5 C -7,2 C 29,0 km/h (5 Bft) 97,32 %
08.12.2015 06:10 0,5 C 99 % 1033,8 hPa 0,0 l/m 17,0 km/h (3 Bft) O-NO 69 0 min 0,000 mm 0,0 UV-I 0 W/m 0,4 C -7,5 C 25,7 km/h (4 Bft) 98,33 %
08.12.2015 06:15 0,5 C 99 % 1033,7 hPa 0,0 l/m 16,7 km/h (3 Bft) O-NO 65 0 min 0,000 mm 0,0 UV-I 0 W/m 0,4 C -7,3 C 22,5 km/h (4 Bft) 99,08 %
08.12.2015 06:20 0,5 C 99 % 1033,7 hPa 0,0 l/m 13,6 km/h (3 Bft) O-NO 66 0 min 0,000 mm 0,0 UV-I 0 W/m 0,4 C -5,5 C 20,9 km/h (4 Bft) 98,21 %
08.12.2015 06:25 0,5 C 99 % 1033,7 hPa 0,0 l/m 15,4 km/h (3 Bft) NO 51 0 min 0,000 mm 0,0 UV-I 0 W/m 0,4 C -6,6 C 24,1 km/h (4 Bft) 99,17 %
08.12.2015 06:30 0,5 C 99 % 1033,7 hPa 0,0 l/m 14,0 km/h (3 Bft) O-NO 57 0 min 0,000 mm 0,0 UV-I 0 W/m 0,4 C -5,8 C 20,9 km/h (4 Bft) 100,00 %
08.12.2015 06:35 0,5 C 99 % 1033,6 hPa 0,0 l/m 16,3 km/h (3 Bft) O-NO 61 0 min 0,000 mm 0,0 UV-I 0 W/m 0,4 C -7,1 C 22,5 km/h (4 Bft) 100,00 %
08.12.2015 06:40 0,5 C 99 % 1033,7 hPa 0,0 l/m 12,2 km/h (2 Bft) NO 34 0 min 0,000 mm 0,0 UV-I 0 W/m 0,4 C -4,6 C 19,3 km/h (3 Bft) 98,35 %
08.12.2015 06:45 0,5 C 99 % 1033,7 hPa 0,0 l/m 13,3 km/h (3 Bft) O-NO 70 0 min 0,000 mm 0,0 UV-I 0 W/m 0,4 C -5,3 C 20,9 km/h (4 Bft) 100,00 %
08.12.2015 06:50 0,6 C 99 % 1033,7 hPa 0,0 l/m 13,7 km/h (3 Bft) NO 55 0 min 0,000 mm 0,0 UV-I 0 W/m 0,5 C -5,5 C 20,9 km/h (4 Bft) 99,12 %
08.12.2015 06:55 0,6 C 99 % 1033,6 hPa 0,0 l/m 11,8 km/h (2 Bft) O-NO 60 0 min 0,000 mm 0,0 UV-I 0 W/m 0,5 C -4,2 C 19,3 km/h (3 Bft) 99,11 %
08.12.2015 07:00 0,6 C 99 % 1033,6 hPa 0,0 l/m 16,0 km/h (3 Bft) O-NO 63 0 min 0,000 mm 0,0 UV-I 0 W/m 0,5 C -6,8 C 22,5 km/h (4 Bft) 100,00 %
08.12.2015 07:05 0,6 C 99 % 1033,6 hPa 0,0 l/m 13,0 km/h (3 Bft) O-NO 63 0 min 0,000 mm 0,0 UV-I 0 W/m 0,5 C -5,0 C 19,3 km/h (3 Bft) 100,00 %
08.12.2015 07:10 0,6 C 99 % 1033,6 hPa 0,0 l/m 14,2 km/h (3 Bft) NO 54 0 min 0,000 mm 0,0 UV-I 0 W/m 0,5 C -5,8 C 22,5 km/h (4 Bft) 100,00 %
08.12.2015 07:15 0,6 C 99 % 1033,6 hPa 0,0 l/m 15,5 km/h (3 Bft) O-NO 71 0 min 0,000 mm 0,0 UV-I 0 W/m 0,5 C -6,5 C 20,9 km/h (4 Bft) 100,00 %
08.12.2015 07:20 0,6 C 99 % 1033,6 hPa 0,0 l/m 14,5 km/h (3 Bft) NO 37 0 min 0,000 mm 0,0 UV-I 0 W/m 0,5 C -6,0 C 22,5 km/h (4 Bft) 99,15 %
08.12.2015 07:25 0,6 C 99 % 1033,7 hPa 0,0 l/m 11,9 km/h (2 Bft) NO 54 0 min 0,000 mm 0,0 UV-I 0 W/m 0,5 C -4,2 C 19,3 km/h (3 Bft) 100,00 %
08.12.2015 07:30 0,6 C 99 % 1033,7 hPa 0,0 l/m 9,5 km/h (2 Bft) NO 45 0 min 0,000 mm 0,0 UV-I 0 W/m 0,5 C -2,4 C 16,1 km/h (3 Bft) 97,37 %
08.12.2015 07:35 0,6 C 99 % 1033,7 hPa 0,0 l/m 13,2 km/h (3 Bft) O-NO 67 0 min 0,000 mm 0,0 UV-I 0 W/m 0,5 C -5,1 C 19,3 km/h (3 Bft) 96,77 %
08.12.2015 07:40 0,6 C 99 % 1033,7 hPa 0,0 l/m 11,9 km/h (2 Bft) O-NO 63 0 min 0,000 mm 0,0 UV-I 0 W/m 0,5 C -4,2 C 19,3 km/h (3 Bft) 97,50 %
08.12.2015 07:45 0,6 C 99 % 1033,8 hPa 0,0 l/m 14,6 km/h (3 Bft) O-NO 63 0 min 0,000 mm 0,0 UV-I 0 W/m 0,5 C -6,0 C 22,5 km/h (4 Bft) 96,61 %
08.12.2015 07:50 0,6 C 99 % 1033,8 hPa 0,0 l/m 12,6 km/h (3 Bft) O-NO 67 0 min 0,000 mm 0,0 UV-I 0 W/m 0,5 C -4,7 C 19,3 km/h (3 Bft) 96,52 %
08.12.2015 07:55 0,6 C 99 % 1033,8 hPa 0,0 l/m 11,6 km/h (2 Bft) O-NO 65 0 min 0,000 mm 0,0 UV-I 0 W/m 0,5 C -4,0 C 19,3 km/h (3 Bft) 97,30 %
08.12.2015 08:00 0,7 C 99 % 1033,8 hPa 0,0 l/m 15,9 km/h (3 Bft) NO 44 0 min 0,000 mm 0,0 UV-I 5 W/m 0,6 C -6,7 C 22,5 km/h (4 Bft) 97,64 %
08.12.2015 08:05 0,7 C 99 % 1033,8 hPa 0,0 l/m 14,9 km/h (3 Bft) NO 40 0 min 0,000 mm 0,0 UV-I 5 W/m 0,6 C -6,1 C 20,9 km/h (4 Bft) 96,33 %
08.12.2015 08:10 0,6 C 99 % 1033,9 hPa 0,0 l/m 13,3 km/h (3 Bft) O-NO 64 0 min 0,000 mm 0,0 UV-I 7 W/m 0,5 C -5,2 C 20,9 km/h (4 Bft) 100,00 %
08.12.2015 08:15 0,7 C 99 % 1033,9 hPa 0,0 l/m 14,0 km/h (3 Bft) O-NO 60 0 min 0,000 mm 0,0 UV-I 8 W/m 0,6 C -5,5 C 22,5 km/h (4 Bft) 99,21 %
08.12.2015 08:20 0,7 C 99 % 1034,0 hPa 0,0 l/m 15,0 km/h (3 Bft) O-NO 57 0 min 0,000 mm 0,0 UV-I 8 W/m 0,6 C -6,1 C 24,1 km/h (4 Bft) 99,10 %
08.12.2015 08:25 0,7 C 99 % 1034,0 hPa 0,0 l/m 18,3 km/h (3 Bft) O-NO 65 0 min 0,000 mm 0,0 UV-I 10 W/m 0,6 C -7,9 C 27,4 km/h (4 Bft) 98,39 %
08.12.2015 08:30 0,7 C 99 % 1034,0 hPa 0,0 l/m 18,3 km/h (3 Bft) NO 49 0 min 0,000 mm 0,0 UV-I 11 W/m 0,6 C -7,9 C 29,0 km/h (5 Bft) 100,00 %
08.12.2015 08:35 0,7 C 99 % 1034,0 hPa 0,0 l/m 18,9 km/h (3 Bft) O-NO 57 0 min 0,000 mm 0,0 UV-I 13 W/m 0,6 C -8,2 C 25,7 km/h (4 Bft) 99,17 %
08.12.2015 08:40 0,7 C 99 % 1034,0 hPa 0,0 l/m 17,5 km/h (3 Bft) O-NO 59 0 min 0,000 mm 0,0 UV-I 14 W/m 0,6 C -7,5 C 24,1 km/h (4 Bft) 99,11 %
08.12.2015 08:45 0,7 C 99 % 1033,9 hPa 0,0 l/m 17,3 km/h (3 Bft) O-NO 61 0 min 0,000 mm 0,0 UV-I 16 W/m 0,6 C -7,4 C 24,1 km/h (4 Bft) 99,08 %
08.12.2015 08:50 0,7 C 99 % 1033,8 hPa 0,0 l/m 20,0 km/h (4 Bft) NO 55 0 min 0,000 mm 0,0 UV-I 16 W/m 0,6 C -8,7 C 29,0 km/h (5 Bft) 99,17 %
08.12.2015 08:55 0,8 C 99 % 1033,9 hPa 0,0 l/m 18,1 km/h (3 Bft) NO 53 0 min 0,000 mm 0,0 UV-I 18 W/m 0,7 C -7,7 C 27,4 km/h (4 Bft) 100,00 %
08.12.2015 09:00 0,8 C 99 % 1034,0 hPa 0,0 l/m 14,4 km/h (3 Bft) NO 49 0 min 0,000 mm 0,0 UV-I 18 W/m 0,7 C -5,7 C 24,1 km/h (4 Bft) 97,50 %
08.12.2015 09:05 0,8 C 99 % 1034,0 hPa 0,0 l/m 16,9 km/h (3 Bft) NO 35 0 min 0,000 mm 0,0 UV-I 18 W/m 0,7 C -7,1 C 24,1 km/h (4 Bft) 99,11 %
08.12.2015 09:10 0,8 C 99 % 1034,0 hPa 0,0 l/m 17,3 km/h (3 Bft) O-NO 69 0 min 0,000 mm 0,0 UV-I 20 W/m 0,7 C -7,3 C 27,4 km/h (4 Bft) 100,00 %
08.12.2015 09:15 0,8 C 99 % 1034,0 hPa 0,0 l/m 16,1 km/h (3 Bft) NO 51 0 min 0,000 mm 0,0 UV-I 20 W/m 0,7 C -6,6 C 24,1 km/h (4 Bft) 100,00 %
08.12.2015 09:20 0,9 C 99 % 1034,1 hPa 0,0 l/m 10,6 km/h (2 Bft) NO 41 0 min 0,000 mm 0,0 UV-I 18 W/m 0,8 C -2,9 C 19,3 km/h (3 Bft) 99,17 %
08.12.2015 09:25 0,9 C 99 % 1034,1 hPa 0,0 l/m 16,3 km/h (3 Bft) NO 40 0 min 0,000 mm 0,0 UV-I 19 W/m 0,8 C -6,6 C 25,7 km/h (4 Bft) 99,08 %
08.12.2015 09:30 0,8 C 99 % 1034,2 hPa 0,0 l/m 16,2 km/h (3 Bft) O-NO 60 0 min 0,000 mm 0,0 UV-I 19 W/m 0,7 C -6,7 C 24,1 km/h (4 Bft) 99,22 %
08.12.2015 09:35 0,9 C 99 % 1034,2 hPa 0,0 l/m 16,8 km/h (3 Bft) O-NO 71 0 min 0,000 mm 0,0 UV-I 20 W/m 0,8 C -6,9 C 25,7 km/h (4 Bft) 97,25 %
08.12.2015 09:40 0,9 C 99 % 1034,3 hPa 0,0 l/m 15,9 km/h (3 Bft) O-NO 69 0 min 0,000 mm 0,0 UV-I 19 W/m 0,8 C -6,4 C 20,9 km/h (4 Bft) 95,93 %
08.12.2015 09:45 0,9 C 99 % 1034,2 hPa 0,0 l/m 14,8 km/h (3 Bft) O-NO 57 0 min 0,000 mm 0,0 UV-I 21 W/m 0,8 C -5,8 C 22,5 km/h (4 Bft) 96,33 %
08.12.2015 09:50 0,9 C 99 % 1034,2 hPa 0,0 l/m 16,1 km/h (3 Bft) O-NO 63 0 min 0,000 mm 0,0 UV-I 23 W/m 0,8 C -6,5 C 22,5 km/h (4 Bft) 98,31 %
08.12.2015 09:55 0,9 C 99 % 1034,3 hPa 0,0 l/m 14,9 km/h (3 Bft) NO 51 0 min 0,000 mm 0,0 UV-I 24 W/m 0,8 C -5,8 C 20,9 km/h (4 Bft) 95,83 %
08.12.2015 10:00 0,9 C 99 % 1034,3 hPa 0,0 l/m 13,5 km/h (3 Bft) O-NO 65 0 min 0,000 mm 0,0 UV-I 26 W/m 0,8 C -5,0 C 20,9 km/h (4 Bft) 96,69 %
08.12.2015 10:05 0,9 C 99 % 1034,3 hPa 0,2 l/m 15,9 km/h (3 Bft) O-NO 76 0 min 0,000 mm 0,0 UV-I 27 W/m 0,8 C -6,4 C 24,1 km/h (4 Bft) 96,91 %
08.12.2015 10:10 0,9 C 99 % 1034,3 hPa 0,0 l/m 16,4 km/h (3 Bft) NO 55 0 min 0,000 mm 0,0 UV-I 30 W/m 0,8 C -6,7 C 20,9 km/h (4 Bft) 98,45 %
08.12.2015 10:15 0,9 C 99 % 1034,3 hPa 0,0 l/m 15,1 km/h (3 Bft) O-NO 57 0 min 0,000 mm 0,0 UV-I 30 W/m 0,8 C -5,9 C 22,5 km/h (4 Bft) 95,76 %
08.12.2015 10:20 1,0 C 99 % 1034,3 hPa 0,0 l/m 12,3 km/h (3 Bft) O-NO 67 0 min 0,000 mm 0,0 UV-I 29 W/m 0,9 C -4,1 C 17,7 km/h (3 Bft) 100,00 %
08.12.2015 10:25 1,1 C 99 % 1034,3 hPa 0,0 l/m 11,4 km/h (2 Bft) O-NO 59 0 min 0,000 mm 0,0 UV-I 29 W/m 1,0 C -3,3 C 17,7 km/h (3 Bft) 100,00 %
08.12.2015 10:30 1,0 C 99 % 1034,3 hPa 0,0 l/m 12,4 km/h (3 Bft) NO 36 0 min 0,000 mm 0,0 UV-I 31 W/m 0,9 C -4,1 C 17,7 km/h (3 Bft) 97,17 %
08.12.2015 10:35 1,1 C 99 % 1034,3 hPa 0,0 l/m 10,8 km/h (2 Bft) O-NO 59 0 min 0,000 mm 0,0 UV-I 33 W/m 1,0 C -2,9 C 17,7 km/h (3 Bft) 98,37 %
08.12.2015 10:40 1,1 C 99 % 1034,3 hPa 0,0 l/m 11,2 km/h (2 Bft) O-NO 63 0 min 0,000 mm 0,0 UV-I 37 W/m 1,0 C -3,2 C 20,9 km/h (4 Bft) 99,15 %
08.12.2015 10:45 1,1 C 99 % 1034,2 hPa 0,0 l/m 13,2 km/h (3 Bft) O-SO 103 0 min 0,000 mm 0,0 UV-I 37 W/m 1,0 C -4,5 C 20,9 km/h (4 Bft) 100,00 %
08.12.2015 10:50 1,1 C 99 % 1034,1 hPa 0,0 l/m 9,2 km/h (2 Bft) NO 49 0 min 0,000 mm 0,0 UV-I 33 W/m 1,0 C -1,6 C 14,5 km/h (3 Bft) 96,77 %
08.12.2015 10:55 1,2 C 99 % 1034,1 hPa 0,0 l/m 12,1 km/h (2 Bft) NO 51 0 min 0,000 mm 0,0 UV-I 34 W/m 1,1 C -3,7 C 17,7 km/h (3 Bft) 100,00 %
08.12.2015 11:00 1,2 C 99 % 1034,1 hPa 0,0 l/m 13,5 km/h (3 Bft) O-NO 70 0 min 0,000 mm 0,0 UV-I 36 W/m 1,1 C -4,6 C 20,9 km/h (4 Bft) 99,17 %
08.12.2015 11:05 1,2 C 99 % 1034,1 hPa 0,0 l/m 11,6 km/h (2 Bft) O-NO 71 0 min 0,000 mm 0,0 UV-I 37 W/m 1,1 C -3,3 C 20,9 km/h (4 Bft) 99,15 %
08.12.2015 11:11 1,2 C 99 % 1034,0 hPa 0,0 l/m 14,5 km/h (3 Bft) O 84 0 min 0,000 mm 0,0 UV-I 39 W/m 1,1 C -5,2 C 22,5 km/h (4 Bft) 98,58 %
08.12.2015 11:12 1,2 C 99 % 1034,0 hPa 0,0 l/m 7,3 km/h (2 Bft) O-NO 78 0 min 0,000 mm 0,0 UV-I 39 W/m 1,1 C 0,3 C 12,9 km/h (3 Bft) 100,00 %
08.12.2015 11:15 1,2 C 99 % 1034,0 hPa 0,0 l/m 14,4 km/h (3 Bft) O-NO 73 0 min 0,000 mm 0,0 UV-I 40 W/m 1,1 C -5,2 C 20,9 km/h (4 Bft) 100,00 %
08.12.2015 11:23 1,2 C 99 % 1033,9 hPa 0,0 l/m 12,8 km/h (3 Bft) O-NO 76 0 min 0,000 mm 0,0 UV-I 42 W/m 1,1 C -4,2 C 24,1 km/h (4 Bft) 98,97 %
08.12.2015 11:25 1,2 C 99 % 1033,9 hPa 0,0 l/m 11,5 km/h (2 Bft) O 86 0 min 0,000 mm 0,0 UV-I 40 W/m 1,1 C -3,3 C 14,5 km/h (3 Bft) 94,87 %
08.12.2015 11:34 1,2 C 99 % 1034,0 hPa 0,0 l/m 11,0 km/h (2 Bft) O 91 0 min 0,000 mm 0,0 UV-I 39 W/m 1,1 C -2,9 C 19,3 km/h (3 Bft) 99,09 %
08.12.2015 11:35 1,2 C 99 % 1034,0 hPa 0,0 l/m 8,0 km/h (2 Bft) O 82 0 min 0,000 mm 0,0 UV-I 39 W/m 1,1 C -0,4 C 11,3 km/h (2 Bft) 100,00 %
08.12.2015 11:45 1,3 C 99 % 1034,0 hPa 0,0 l/m 10,3 km/h (2 Bft) NO 54 0 min 0,000 mm 0,0 UV-I 39 W/m 1,2 C -2,3 C 20,9 km/h (4 Bft) 97,06 %
08.12.2015 11:50 1,3 C 99 % 1034,0 hPa 0,0 l/m 12,2 km/h (2 Bft) O-NO 57 0 min 0,000 mm 0,0 UV-I 38 W/m 1,2 C -3,6 C 20,9 km/h (4 Bft) 95,65 %
08.12.2015 11:56 1,3 C 99 % 1034,0 hPa 0,0 l/m 12,0 km/h (2 Bft) O-NO 67 0 min 0,000 mm 0,0 UV-I 40 W/m 1,2 C -3,5 C 17,7 km/h (3 Bft) 95,14 %
08.12.2015 12:00 1,3 C 99 % 1034,0 hPa 0,0 l/m 10,1 km/h (2 Bft) O 85 0 min 0,025 mm 0,0 UV-I 42 W/m 1,2 C -2,1 C 19,3 km/h (3 Bft) 97,65 %
08.12.2015 12:07 1,2 C 99 % 1033,9 hPa 0,0 l/m 12,8 km/h (3 Bft) O 85 0 min 0,000 mm 0,0 UV-I 45 W/m 1,1 C -4,2 C 22,5 km/h (4 Bft) 94,05 %
08.12.2015 12:10 1,2 C 99 % 1033,9 hPa 0,0 l/m 18,6 km/h (3 Bft) O-NO 71 0 min 0,000 mm 0,0 UV-I 46 W/m 1,1 C -7,4 C 24,1 km/h (4 Bft) 98,51 %
08.12.2015 12:18 1,2 C 99 % 1033,9 hPa 0,0 l/m 14,6 km/h (3 Bft) O 91 0 min 0,000 mm 0,0 UV-I 47 W/m 1,1 C -5,3 C 24,1 km/h (4 Bft) 97,97 %
08.12.2015 12:20 1,2 C 99 % 1033,9 hPa 0,0 l/m 12,4 km/h (3 Bft) O 80 0 min 0,000 mm 0,0 UV-I 44 W/m 1,1 C -3,9 C 19,3 km/h (3 Bft) 97,44 %
08.12.2015 12:29 1,3 C 99 % 1033,8 hPa 0,0 l/m 13,8 km/h (3 Bft) O 85 0 min 0,000 mm 0,0 UV-I 38 W/m 1,2 C -4,7 C 22,5 km/h (4 Bft) 98,60 %
08.12.2015 12:30 1,3 C 99 % 1033,8 hPa 0,0 l/m 17,0 km/h (3 Bft) O-NO 63 0 min 0,000 mm 0,0 UV-I 37 W/m 1,2 C -6,5 C 22,5 km/h (4 Bft) 100,00 %
08.12.2015 12:35 1,3 C 99 % 1033,8 hPa 0,0 l/m 11,3 km/h (2 Bft) O 90 0 min 0,000 mm 0,0 UV-I 39 W/m 1,2 C -3,0 C 17,7 km/h (3 Bft) 97,37 %
08.12.2015 12:40 1,3 C 99 % 1033,8 hPa 0,0 l/m 8,0 km/h (2 Bft) O 90 0 min 0,000 mm 0,0 UV-I 40 W/m 1,2 C -0,3 C 14,5 km/h (3 Bft) 98,25 %
08.12.2015 12:45 1,3 C 99 % 1033,8 hPa 0,0 l/m 9,1 km/h (2 Bft) O-NO 76 0 min 0,000 mm 0,0 UV-I 43 W/m 1,2 C -1,3 C 16,1 km/h (3 Bft) 100,00 %
08.12.2015 12:50 1,3 C 99 % 1033,7 hPa 0,0 l/m 8,6 km/h (2 Bft) O-NO 61 0 min 0,000 mm 0,0 UV-I 40 W/m 1,2 C -0,8 C 19,3 km/h (3 Bft) 98,43 %
08.12.2015 12:55 1,3 C 99 % 1033,7 hPa 0,0 l/m 8,3 km/h (2 Bft) O-NO 78 0 min 0,000 mm 0,0 UV-I 36 W/m 1,2 C -0,6 C 16,1 km/h (3 Bft) 100,00 %
08.12.2015 13:00 1,3 C 99 % 1033,7 hPa 0,0 l/m 11,1 km/h (2 Bft) O-NO 67 0 min 0,026 mm 0,0 UV-I 35 W/m 1,2 C -2,9 C 17,7 km/h (3 Bft) 98,17 %
08.12.2015 13:05 1,3 C 99 % 1033,6 hPa 0,0 l/m 10,5 km/h (2 Bft) O-NO 65 0 min 0,000 mm 0,0 UV-I 36 W/m 1,2 C -2,4 C 16,1 km/h (3 Bft) 96,61 %
08.12.2015 13:10 1,3 C 99 % 1033,7 hPa 0,0 l/m 11,4 km/h (2 Bft) O-NO 78 0 min 0,000 mm 0,0 UV-I 26 W/m 1,2 C -3,1 C 19,3 km/h (3 Bft) 100,00 %
08.12.2015 13:15 1,3 C 99 % 1033,6 hPa 0,0 l/m 9,4 km/h (2 Bft) O-NO 64 0 min 0,000 mm 0,0 UV-I 25 W/m 1,2 C -1,5 C 16,1 km/h (3 Bft) 100,00 %
08.12.2015 13:20 1,2 C 99 % 1033,6 hPa 0,0 l/m 12,7 km/h (3 Bft) O-NO 63 0 min 0,000 mm 0,0 UV-I 21 W/m 1,1 C -4,1 C 17,7 km/h (3 Bft) 100,00 %
08.12.2015 13:25 1,2 C 99 % 1033,7 hPa 0,0 l/m 11,7 km/h (2 Bft) O-NO 59 0 min 0,000 mm 0,0 UV-I 26 W/m 1,1 C -3,4 C 19,3 km/h (3 Bft) 100,00 %
08.12.2015 13:30 1,3 C 99 % 1033,6 hPa 0,0 l/m 7,1 km/h (2 Bft) O-NO 70 0 min 0,000 mm 0,0 UV-I 17 W/m 1,2 C 0,6 C 12,9 km/h (3 Bft) 99,17 %
08.12.2015 13:35 1,3 C 99 % 1033,6 hPa 0,0 l/m 8,4 km/h (2 Bft) O-NO 77 0 min 0,000 mm 0,0 UV-I 15 W/m 1,2 C -0,7 C 12,9 km/h (3 Bft) 97,56 %
08.12.2015 13:40 1,3 C 99 % 1033,6 hPa 0,0 l/m 9,2 km/h (2 Bft) O 89 0 min 0,000 mm 0,0 UV-I 16 W/m 1,2 C -1,4 C 14,5 km/h (3 Bft) 94,34 %
08.12.2015 13:45 1,3 C 99 % 1033,6 hPa 0,0 l/m 10,3 km/h (2 Bft) O 79 0 min 0,000 mm 0,0 UV-I 18 W/m 1,2 C -2,3 C 17,7 km/h (3 Bft) 97,56 %
08.12.2015 13:50 1,3 C 99 % 1033,7 hPa 0,0 l/m 10,6 km/h (2 Bft) O-NO 76 0 min 0,000 mm 0,0 UV-I 23 W/m 1,2 C -2,5 C 17,7 km/h (3 Bft) 97,46 %
08.12.2015 13:55 1,3 C 99 % 1033,7 hPa 0,0 l/m 7,3 km/h (2 Bft) O 88 0 min 0,000 mm 0,0 UV-I 18 W/m 1,2 C 0,4 C 14,5 km/h (3 Bft) 96,91 %
08.12.2015 14:00 1,3 C 99 % 1033,7 hPa 0,0 l/m 7,9 km/h (2 Bft) O-NO 59 0 min 0,000 mm 0,0 UV-I 13 W/m 1,2 C -0,2 C 12,9 km/h (3 Bft) 96,21 %
08.12.2015 14:05 1,3 C 99 % 1033,6 hPa 0,0 l/m 8,9 km/h (2 Bft) O 80 0 min 0,000 mm 0,0 UV-I 19 W/m 1,2 C -1,1 C 14,5 km/h (3 Bft) 97,46 %
08.12.2015 14:10 1,3 C 99 % 1033,6 hPa 0,0 l/m 7,4 km/h (2 Bft) NO 56 0 min 0,000 mm 0,0 UV-I 20 W/m 1,2 C 0,3 C 12,9 km/h (3 Bft) 98,39 %
08.12.2015 14:15 1,3 C 99 % 1033,6 hPa 0,0 l/m 10,9 km/h (2 Bft) O 84 0 min 0,000 mm 0,0 UV-I 21 W/m 1,2 C -2,7 C 16,1 km/h (3 Bft) 99,12 %
08.12.2015 14:20 1,2 C 99 % 1033,6 hPa 0,0 l/m 8,7 km/h (2 Bft) NO 47 0 min 0,000 mm 0,0 UV-I 26 W/m 1,1 C -1,0 C 16,1 km/h (3 Bft) 98,35 %
08.12.2015 14:25 1,3 C 99 % 1033,5 hPa 0,0 l/m 8,7 km/h (2 Bft) O 86 0 min 0,000 mm 0,0 UV-I 26 W/m 1,2 C -0,9 C 16,1 km/h (3 Bft) 98,17 %
08.12.2015 14:30 1,3 C 99 % 1033,5 hPa 0,0 l/m 7,5 km/h (2 Bft) O-SO 102 0 min 0,000 mm 0,0 UV-I 28 W/m 1,2 C 0,2 C 12,9 km/h (3 Bft) 99,19 %
08.12.2015 14:35 1,3 C 99 % 1033,5 hPa 0,0 l/m 5,1 km/h (1 Bft) NO 48 0 min 0,000 mm 0,0 UV-I 23 W/m 1,2 C 1,3 C 9,7 km/h (2 Bft) 98,21 %
08.12.2015 14:40 1,3 C 99 % 1033,4 hPa 0,0 l/m 12,3 km/h (3 Bft) O-NO 71 0 min 0,000 mm 0,0 UV-I 25 W/m 1,2 C -3,7 C 19,3 km/h (3 Bft) 99,17 %
08.12.2015 14:45 1,3 C 99 % 1033,4 hPa 0,0 l/m 12,4 km/h (3 Bft) O-NO 61 0 min 0,000 mm 0,0 UV-I 24 W/m 1,2 C -3,8 C 17,7 km/h (3 Bft) 100,00 %
08.12.2015 14:50 1,2 C 99 % 1033,5 hPa 0,0 l/m 11,6 km/h (2 Bft) O-NO 76 0 min 0,000 mm 0,0 UV-I 23 W/m 1,1 C -3,3 C 16,1 km/h (3 Bft) 100,00 %
08.12.2015 14:55 1,2 C 99 % 1033,5 hPa 0,0 l/m 12,4 km/h (3 Bft) O 86 0 min 0,000 mm 0,0 UV-I 22 W/m 1,1 C -3,9 C 20,9 km/h (4 Bft) 99,10 %
08.12.2015 15:00 1,2 C 99 % 1033,5 hPa 0,0 l/m 12,1 km/h (2 Bft) O-NO 74 0 min 0,000 mm 0,0 UV-I 18 W/m 1,1 C -3,7 C 16,1 km/h (3 Bft) 99,13 %
08.12.2015 15:05 1,2 C 99 % 1033,6 hPa 0,0 l/m 11,3 km/h (2 Bft) O-NO 67 0 min 0,000 mm 0,0 UV-I 18 W/m 1,1 C -3,1 C 16,1 km/h (3 Bft) 99,14 %
08.12.2015 15:10 1,2 C 99 % 1033,6 hPa 0,0 l/m 11,4 km/h (2 Bft) O-NO 61 0 min 0,000 mm 0,0 UV-I 10 W/m 1,1 C -3,2 C 17,7 km/h (3 Bft) 97,56 %
08.12.2015 15:15 1,2 C 99 % 1033,7 hPa 0,0 l/m 10,9 km/h (2 Bft) O 82 0 min 0,000 mm 0,0 UV-I 9 W/m 1,1 C -2,8 C 16,1 km/h (3 Bft) 99,13 %
08.12.2015 15:20 1,2 C 99 % 1033,7 hPa 0,0 l/m 7,2 km/h (2 Bft) NO 53 0 min 0,000 mm 0,0 UV-I 8 W/m 1,1 C 0,4 C 14,5 km/h (3 Bft) 100,00 %
08.12.2015 15:25 1,2 C 99 % 1033,7 hPa 0,0 l/m 10,7 km/h (2 Bft) O-NO 68 0 min 0,000 mm 0,0 UV-I 7 W/m 1,1 C -2,7 C 16,1 km/h (3 Bft) 98,41 %
08.12.2015 15:30 1,2 C 99 % 1033,7 hPa 0,0 l/m 9,0 km/h (2 Bft) NO 53 0 min 0,000 mm 0,0 UV-I 5 W/m 1,1 C -1,3 C 16,1 km/h (3 Bft) 100,00 %
08.12.2015 15:35 1,2 C 99 % 1033,7 hPa 0,0 l/m 11,6 km/h (2 Bft) O-NO 61 0 min 0,000 mm 0,0 UV-I 5 W/m 1,1 C -3,3 C 17,7 km/h (3 Bft) 98,29 %
08.12.2015 15:40 1,2 C 99 % 1033,7 hPa 0,0 l/m 10,0 km/h (2 Bft) O-NO 63 0 min 0,000 mm 0,0 UV-I 3 W/m 1,1 C -2,1 C 17,7 km/h (3 Bft) 97,52 %
08.12.2015 15:45 1,2 C 99 % 1033,8 hPa 0,0 l/m 9,8 km/h (2 Bft) NO 46 0 min 0,000 mm 0,0 UV-I 0 W/m 1,1 C -2,0 C 14,5 km/h (3 Bft) 93,91 %
08.12.2015 15:50 1,2 C 99 % 1033,9 hPa 0,0 l/m 11,4 km/h (2 Bft) O-NO 58 0 min 0,000 mm 0,0 UV-I 0 W/m 1,1 C -3,2 C 17,7 km/h (3 Bft) 96,75 %
08.12.2015 15:55 1,2 C 99 % 1033,8 hPa 0,0 l/m 9,4 km/h (2 Bft) O-NO 65 0 min 0,000 mm 0,0 UV-I 0 W/m 1,1 C -1,6 C 16,1 km/h (3 Bft) 96,61 %
08.12.2015 16:00 1,2 C 99 % 1033,9 hPa 0,0 l/m 9,4 km/h (2 Bft) O-NO 69 0 min 0,000 mm 0,0 UV-I 0 W/m 1,1 C -1,6 C 16,1 km/h (3 Bft) 96,58 %
08.12.2015 16:05 1,2 C 99 % 1033,9 hPa 0,0 l/m 9,6 km/h (2 Bft) O-NO 64 0 min 0,000 mm 0,0 UV-I 0 W/m 1,1 C -1,8 C 16,1 km/h (3 Bft) 97,32 %
08.12.2015 16:10 1,2 C 99 % 1034,0 hPa 0,0 l/m 10,1 km/h (2 Bft) O-NO 76 0 min 0,000 mm 0,0 UV-I 0 W/m 1,1 C -2,2 C 16,1 km/h (3 Bft) 96,61 %
08.12.2015 16:15 1,1 C 99 % 1033,9 hPa 0,0 l/m 10,8 km/h (2 Bft) O 92 0 min 0,000 mm 0,0 UV-I 0 W/m 1,0 C -2,9 C 16,1 km/h (3 Bft) 99,15 %
08.12.2015 16:20 1,2 C 99 % 1033,8 hPa 0,0 l/m 9,1 km/h (2 Bft) O 84 0 min 0,000 mm 0,0 UV-I 0 W/m 1,1 C -1,4 C 16,1 km/h (3 Bft) 99,08 %
08.12.2015 16:25 1,1 C 99 % 1033,8 hPa 0,0 l/m 9,7 km/h (2 Bft) O-NO 69 0 min 0,000 mm 0,0 UV-I 0 W/m 1,0 C -2,0 C 19,3 km/h (3 Bft) 100,00 %
08.12.2015 16:30 1,1 C 99 % 1033,8 hPa 0,0 l/m 10,4 km/h (2 Bft) O-SO 109 0 min 0,000 mm 0,0 UV-I 0 W/m 1,0 C -2,6 C 16,1 km/h (3 Bft) 99,12 %
08.12.2015 16:35 1,1 C 99 % 1033,9 hPa 0,0 l/m 7,5 km/h (2 Bft) O-NO 78 0 min 0,000 mm 0,0 UV-I 0 W/m 1,0 C -0,0 C 12,9 km/h (3 Bft) 100,00 %
08.12.2015 16:40 1,2 C 99 % 1033,9 hPa 0,0 l/m 6,8 km/h (2 Bft) NO 53 0 min 0,000 mm 0,0 UV-I 0 W/m 1,1 C 0,8 C 12,9 km/h (3 Bft) 99,12 %
08.12.2015 16:45 1,2 C 99 % 1033,9 hPa 0,0 l/m 8,5 km/h (2 Bft) O 99 0 min 0,000 mm 0,0 UV-I 0 W/m 1,1 C -0,8 C 14,5 km/h (3 Bft) 100,00 %
08.12.2015 16:50 1,1 C 99 % 1033,9 hPa 0,0 l/m 7,6 km/h (2 Bft) O-NO 61 0 min 0,000 mm 0,0 UV-I 0 W/m 1,0 C -0,1 C 12,9 km/h (3 Bft) 99,06 %
08.12.2015 16:55 1,1 C 99 % 1034,0 hPa 0,0 l/m 8,0 km/h (2 Bft) O 95 0 min 0,000 mm 0,0 UV-I 0 W/m 1,0 C -0,5 C 14,5 km/h (3 Bft) 100,00 %
08.12.2015 17:00 1,1 C 99 % 1034,1 hPa 0,0 l/m 8,8 km/h (2 Bft) NO 48 0 min 0,000 mm 0,0 UV-I 0 W/m 1,0 C -1,2 C 14,5 km/h (3 Bft) 99,19 %
08.12.2015 17:05 1,1 C 99 % 1034,0 hPa 0,0 l/m 9,4 km/h (2 Bft) NO 37 0 min 0,000 mm 0,0 UV-I 0 W/m 1,0 C -1,7 C 14,5 km/h (3 Bft) 99,13 %
08.12.2015 17:10 1,1 C 99 % 1034,0 hPa 0,0 l/m 8,2 km/h (2 Bft) O 81 0 min 0,000 mm 0,0 UV-I 0 W/m 1,0 C -0,7 C 12,9 km/h (3 Bft) 100,00 %
08.12.2015 17:15 1,1 C 99 % 1034,1 hPa 0,0 l/m 6,1 km/h (2 Bft) NO 40 0 min 0,000 mm 0,0 UV-I 0 W/m 1,0 C 1,1 C 11,3 km/h (2 Bft) 98,35 %
08.12.2015 17:20 1,1 C 99 % 1034,1 hPa 0,0 l/m 7,3 km/h (2 Bft) NO 55 0 min 0,000 mm 0,0 UV-I 0 W/m 1,0 C 0,2 C 12,9 km/h (3 Bft) 99,08 %
08.12.2015 17:25 1,1 C 99 % 1034,1 hPa 0,0 l/m 9,0 km/h (2 Bft) O 84 0 min 0,000 mm 0,0 UV-I 0 W/m 1,0 C -1,4 C 14,5 km/h (3 Bft) 100,00 %
08.12.2015 17:30 1,1 C 99 % 1034,1 hPa 0,0 l/m 8,0 km/h (2 Bft) NO 53 0 min 0,000 mm 0,0 UV-I 0 W/m 1,0 C -0,5 C 12,9 km/h (3 Bft) 100,00 %
08.12.2015 17:35 1,1 C 99 % 1034,1 hPa 0,0 l/m 7,1 km/h (2 Bft) NO 50 0 min 0,000 mm 0,0 UV-I 0 W/m 1,0 C 0,4 C 9,7 km/h (2 Bft) 98,15 %
08.12.2015 17:40 1,1 C 99 % 1034,1 hPa 0,0 l/m 6,6 km/h (2 Bft) NO 44 0 min 0,000 mm 0,0 UV-I 0 W/m 1,0 C 0,9 C 12,9 km/h (3 Bft) 97,46 %
08.12.2015 17:45 1,1 C 98 % 1034,1 hPa 0,0 l/m 7,3 km/h (2 Bft) NO 41 0 min 0,000 mm 0,0 UV-I 0 W/m 0,8 C 0,2 C 12,9 km/h (3 Bft) 97,46 %
08.12.2015 17:50 1,0 C 98 % 1034,1 hPa 0,0 l/m 6,5 km/h (2 Bft) O 82 0 min 0,000 mm 0,0 UV-I 0 W/m 0,7 C 0,9 C 11,3 km/h (2 Bft) 96,03 %
08.12.2015 17:55 1,0 C 98 % 1034,1 hPa 0,0 l/m 7,6 km/h (2 Bft) O-NO 78 0 min 0,000 mm 0,0 UV-I 0 W/m 0,7 C -0,2 C 12,9 km/h (3 Bft) 96,43 %
08.12.2015 18:00 1,0 C 98 % 1034,1 hPa 0,0 l/m 7,3 km/h (2 Bft) O 100 0 min 0,000 mm 0,0 UV-I 0 W/m 0,7 C 0,1 C 12,9 km/h (3 Bft) 97,37 %
08.12.2015 18:05 1,0 C 98 % 1034,2 hPa 0,0 l/m 4,9 km/h (1 Bft) O-SO 105 0 min 0,000 mm 0,0 UV-I 0 W/m 0,7 C 1,0 C 8,0 km/h (2 Bft) 96,52 %
08.12.2015 18:10 1,0 C 98 % 1034,2 hPa 0,0 l/m 5,8 km/h (2 Bft) O-NO 76 0 min 0,000 mm 0,0 UV-I 0 W/m 0,7 C 1,0 C 9,7 km/h (2 Bft) 96,77 %
08.12.2015 18:15 1,1 C 98 % 1034,2 hPa 0,0 l/m 4,8 km/h (1 Bft) O-NO 76 0 min 0,000 mm 0,0 UV-I 0 W/m 0,8 C 1,1 C 9,7 km/h (2 Bft) 95,83 %
08.12.2015 18:20 1,1 C 98 % 1034,2 hPa 0,0 l/m 6,2 km/h (2 Bft) O 97 0 min 0,000 mm 0,0 UV-I 0 W/m 0,8 C 1,1 C 11,3 km/h (2 Bft) 99,08 %
08.12.2015 18:25 1,0 C 98 % 1034,2 hPa 0,0 l/m 5,4 km/h (1 Bft) O-NO 61 0 min 0,000 mm 0,0 UV-I 0 W/m 0,7 C 1,0 C 9,7 km/h (2 Bft) 97,52 %
08.12.2015 18:30 1,1 C 98 % 1034,2 hPa 0,0 l/m 5,1 km/h (1 Bft) O-NO 65 0 min 0,000 mm 0,0 UV-I 0 W/m 0,8 C 1,1 C 8,0 km/h (2 Bft) 98,20 %
08.12.2015 18:35 1,0 C 98 % 1034,2 hPa 0,0 l/m 5,2 km/h (1 Bft) O-NO 61 0 min 0,000 mm 0,0 UV-I 0 W/m 0,7 C 1,0 C 8,0 km/h (2 Bft) 100,00 %
08.12.2015 18:40 1,0 C 98 % 1034,2 hPa 0,0 l/m 4,1 km/h (1 Bft) O-NO 61 0 min 0,000 mm 0,0 UV-I 0 W/m 0,7 C 1,0 C 8,0 km/h (2 Bft) 99,19 %
08.12.2015 18:45 1,0 C 98 % 1034,3 hPa 0,0 l/m 3,9 km/h (1 Bft) O-SO 115 0 min 0,000 mm 0,0 UV-I 0 W/m 0,7 C 1,0 C 6,4 km/h (2 Bft) 100,00 %
08.12.2015 18:50 1,1 C 98 % 1034,2 hPa 0,0 l/m 3,3 km/h (1 Bft) O 90 0 min 0,000 mm 0,0 UV-I 0 W/m 0,8 C 1,1 C 6,4 km/h (2 Bft) 99,15 %
08.12.2015 18:55 1,1 C 98 % 1034,2 hPa 0,0 l/m 4,3 km/h (1 Bft) O 95 0 min 0,000 mm 0,0 UV-I 0 W/m 0,8 C 1,1 C 8,0 km/h (2 Bft) 100,00 %
08.12.2015 19:00 1,1 C 98 % 1034,3 hPa 0,0 l/m 3,9 km/h (1 Bft) O 101 0 min 0,000 mm 0,0 UV-I 0 W/m 0,8 C 1,1 C 6,4 km/h (2 Bft) 100,00 %
08.12.2015 19:05 1,0 C 98 % 1034,3 hPa 0,0 l/m 4,0 km/h (1 Bft) SO 128 0 min 0,000 mm 0,0 UV-I 0 W/m 0,7 C 1,0 C 9,7 km/h (2 Bft) 97,52 %
08.12.2015 19:10 1,0 C 98 % 1034,3 hPa 0,0 l/m 5,1 km/h (1 Bft) SO 126 0 min 0,000 mm 0,0 UV-I 0 W/m 0,7 C 1,0 C 9,7 km/h (2 Bft) 100,00 %
08.12.2015 19:15 1,0 C 98 % 1034,3 hPa 0,0 l/m 3,1 km/h (1 Bft) SO 142 0 min 0,000 mm 0,0 UV-I 0 W/m 0,7 C 1,0 C 6,4 km/h (2 Bft) 99,13 %
08.12.2015 19:20 1,0 C 98 % 1034,3 hPa 0,0 l/m 3,4 km/h (1 Bft) O-NO 77 0 min 0,000 mm 0,0 UV-I 0 W/m 0,7 C 1,0 C 6,4 km/h (2 Bft) 99,17 %
08.12.2015 19:25 1,0 C 98 % 1034,3 hPa 0,0 l/m 4,2 km/h (1 Bft) O-NO 78 0 min 0,000 mm 0,0 UV-I 0 W/m 0,7 C 1,0 C 8,0 km/h (2 Bft) 99,03 %
08.12.2015 19:30 1,0 C 98 % 1034,2 hPa 0,0 l/m 3,6 km/h (1 Bft) O-SO 109 0 min 0,000 mm 0,0 UV-I 0 W/m 0,7 C 1,0 C 6,4 km/h (2 Bft) 99,24 %
08.12.2015 19:35 1,0 C 98 % 1034,3 hPa 0,0 l/m 5,2 km/h (1 Bft) O-NO 71 0 min 0,000 mm 0,0 UV-I 0 W/m 0,7 C 1,0 C 8,0 km/h (2 Bft) 98,29 %
08.12.2015 19:40 0,9 C 98 % 1034,2 hPa 0,0 l/m 4,8 km/h (1 Bft) O-SO 117 0 min 0,000 mm 0,0 UV-I 0 W/m 0,6 C 0,9 C 9,7 km/h (2 Bft) 100,00 %
08.12.2015 19:45 0,9 C 98 % 1034,1 hPa 0,0 l/m 4,2 km/h (1 Bft) O-SO 105 0 min 0,000 mm 0,0 UV-I 0 W/m 0,6 C 0,9 C 6,4 km/h (2 Bft) 96,75 %
08.12.2015 19:50 0,9 C 98 % 1034,1 hPa 0,0 l/m 5,6 km/h (1 Bft) O-SO 112 0 min 0,000 mm 0,0 UV-I 0 W/m 0,6 C 0,9 C 11,3 km/h (2 Bft) 94,78 %
08.12.2015 19:55 0,9 C 98 % 1034,1 hPa 0,0 l/m 6,2 km/h (2 Bft) O 94 0 min 0,000 mm 0,0 UV-I 0 W/m 0,6 C 0,9 C 11,3 km/h (2 Bft) 94,64 %
08.12.2015 20:00 0,9 C 98 % 1034,1 hPa 0,0 l/m 5,1 km/h (1 Bft) O 92 0 min 0,000 mm 0,0 UV-I 0 W/m 0,6 C 0,9 C 11,3 km/h (2 Bft) 96,67 %
08.12.2015 20:05 0,8 C 98 % 1034,1 hPa 0,0 l/m 4,7 km/h (1 Bft) O-NO 73 0 min 0,000 mm 0,0 UV-I 0 W/m 0,5 C 0,8 C 6,4 km/h (2 Bft) 97,39 %
08.12.2015 20:10 0,8 C 98 % 1034,1 hPa 0,0 l/m 3,2 km/h (1 Bft) O-NO 67 0 min 0,000 mm 0,0 UV-I 0 W/m 0,5 C 0,8 C 6,4 km/h (2 Bft) 96,77 %
08.12.2015 20:15 0,8 C 98 % 1034,0 hPa 0,0 l/m 0,9 km/h (0 Bft) O-NO 67 0 min 0,000 mm 0,0 UV-I 0 W/m 0,5 C 0,8 C 3,2 km/h (1 Bft) 98,25 %
08.12.2015 20:20 0,9 C 98 % 1034,0 hPa 0,0 l/m 2,2 km/h (1 Bft) O-NO 67 0 min 0,000 mm 0,0 UV-I 0 W/m 0,6 C 0,9 C 4,8 km/h (1 Bft) 99,11 %
08.12.2015 20:25 0,9 C 98 % 1034,1 hPa 0,0 l/m 2,3 km/h (1 Bft) O-NO 57 0 min 0,000 mm 0,0 UV-I 0 W/m 0,6 C 0,9 C 4,8 km/h (1 Bft) 96,83 %
08.12.2015 20:30 0,9 C 98 % 1034,0 hPa 0,0 l/m 2,5 km/h (1 Bft) O 92 0 min 0,000 mm 0,0 UV-I 0 W/m 0,6 C 0,9 C 6,4 km/h (2 Bft) 98,26 %
08.12.2015 20:35 0,8 C 98 % 1033,9 hPa 0,0 l/m 0,4 km/h (0 Bft) O 92 0 min 0,000 mm 0,0 UV-I 0 W/m 0,5 C 0,8 C 4,8 km/h (1 Bft) 99,13 %
08.12.2015 20:40 0,9 C 98 % 1033,9 hPa 0,0 l/m 1,2 km/h (1 Bft) NO 56 0 min 0,000 mm 0,0 UV-I 0 W/m 0,6 C 0,9 C 4,8 km/h (1 Bft) 99,08 %
08.12.2015 20:45 0,9 C 98 % 1033,8 hPa 0,0 l/m 1,9 km/h (1 Bft) NO 40 0 min 0,000 mm 0,0 UV-I 0 W/m 0,6 C 0,9 C 4,8 km/h (1 Bft) 99,22 %
08.12.2015 20:50 0,9 C 98 % 1033,8 hPa 0,0 l/m 2,3 km/h (1 Bft) NO 40 0 min 0,000 mm 0,0 UV-I 0 W/m 0,6 C 0,9 C 4,8 km/h (1 Bft) 98,31 %
08.12.2015 20:55 0,9 C 98 % 1033,9 hPa 0,0 l/m 3,1 km/h (1 Bft) O-NO 64 0 min 0,000 mm 0,0 UV-I 0 W/m 0,6 C 0,9 C 4,8 km/h (1 Bft) 96,30 %
08.12.2015 21:00 0,9 C 98 % 1033,9 hPa 0,0 l/m 1,7 km/h (1 Bft) O-NO 64 0 min 0,000 mm 0,0 UV-I 0 W/m 0,6 C 0,9 C 3,2 km/h (1 Bft) 99,19 %
08.12.2015 21:05 0,9 C 98 % 1033,9 hPa 0,0 l/m 1,3 km/h (1 Bft) O-NO 64 0 min 0,000 mm 0,0 UV-I 0 W/m 0,6 C 0,9 C 3,2 km/h (1 Bft) 98,11 %
08.12.2015 21:10 0,9 C 98 % 1033,9 hPa 0,0 l/m 2,2 km/h (1 Bft) O-NO 64 0 min 0,000 mm 0,0 UV-I 0 W/m 0,6 C 0,9 C 3,2 km/h (1 Bft) 99,19 %
08.12.2015 21:15 0,9 C 98 % 1033,8 hPa 0,0 l/m 1,1 km/h (1 Bft) O-NO 64 0 min 0,000 mm 0,0 UV-I 0 W/m 0,6 C 0,9 C 4,8 km/h (1 Bft) 99,15 %
08.12.2015 21:20 0,9 C 98 % 1033,8 hPa 0,0 l/m 1,0 km/h (0 Bft) O-NO 64 0 min 0,000 mm 0,0 UV-I 0 W/m 0,6 C 0,9 C 3,2 km/h (1 Bft) 98,33 %
08.12.2015 21:25 0,9 C 98 % 1033,9 hPa 0,0 l/m 1,2 km/h (1 Bft) O-NO 64 0 min 0,000 mm 0,0 UV-I 0 W/m 0,6 C 0,9 C 3,2 km/h (1 Bft) 99,17 %
08.12.2015 21:30 0,9 C 98 % 1033,9 hPa 0,0 l/m 0,1 km/h (0 Bft) O-NO 64 0 min 0,000 mm 0,0 UV-I 0 W/m 0,6 C 0,9 C 1,6 km/h (1 Bft) 98,21 %
08.12.2015 21:35 0,9 C 98 % 1033,8 hPa 0,0 l/m 0,8 km/h (0 Bft) O-SO 102 0 min 0,000 mm 0,0 UV-I 0 W/m 0,6 C 0,9 C 4,8 km/h (1 Bft) 99,10 %
08.12.2015 21:40 0,9 C 98 % 1033,8 hPa 0,0 l/m 1,9 km/h (1 Bft) SO 126 0 min 0,000 mm 0,0 UV-I 0 W/m 0,6 C 0,9 C 4,8 km/h (1 Bft) 99,17 %
08.12.2015 21:45 0,9 C 98 % 1033,8 hPa 0,0 l/m 2,2 km/h (1 Bft) S-SO 157 0 min 0,000 mm 0,0 UV-I 0 W/m 0,6 C 0,9 C 4,8 km/h (1 Bft) 98,37 %
08.12.2015 21:50 0,8 C 98 % 1033,8 hPa 0,0 l/m 3,0 km/h (1 Bft) SO 127 0 min 0,000 mm 0,0 UV-I 0 W/m 0,5 C 0,8 C 6,4 km/h (2 Bft) 96,61 %
08.12.2015 21:55 0,8 C 98 % 1033,7 hPa 0,0 l/m 2,7 km/h (1 Bft) S-SW 192 0 min 0,000 mm 0,0 UV-I 0 W/m 0,5 C 0,8 C 6,4 km/h (2 Bft) 97,39 %
08.12.2015 22:00 0,8 C 98 % 1033,7 hPa 0,0 l/m 0,6 km/h (0 Bft) S-SW 192 0 min 0,000 mm 0,0 UV-I 0 W/m 0,5 C 0,8 C 3,2 km/h (1 Bft) 97,44 %
08.12.2015 22:05 0,8 C 98 % 1033,8 hPa 0,0 l/m 2,5 km/h (1 Bft) S-SW 192 0 min 0,000 mm 0,0 UV-I 0 W/m 0,5 C 0,8 C 4,8 km/h (1 Bft) 96,61 %
08.12.2015 22:10 0,8 C 98 % 1033,8 hPa 0,0 l/m 1,1 km/h (1 Bft) S-SW 192 0 min 0,000 mm 0,0 UV-I 0 W/m 0,5 C 0,8 C 3,2 km/h (1 Bft) 96,43 %
08.12.2015 22:15 0,8 C 98 % 1033,8 hPa 0,0 l/m 1,7 km/h (1 Bft) S-SW 192 0 min 0,000 mm 0,0 UV-I 0 W/m 0,5 C 0,8 C 4,8 km/h (1 Bft) 97,56 %
08.12.2015 22:20 0,8 C 98 % 1033,7 hPa 0,0 l/m 2,0 km/h (1 Bft) S-SW 193 0 min 0,000 mm 0,0 UV-I 0 W/m 0,5 C 0,8 C 3,2 km/h (1 Bft) 97,46 %
08.12.2015 22:25 0,7 C 98 % 1033,7 hPa 0,0 l/m 2,4 km/h (1 Bft) S 189 0 min 0,000 mm 0,0 UV-I 0 W/m 0,4 C 0,7 C 6,4 km/h (2 Bft) 99,08 %
08.12.2015 22:30 0,7 C 99 % 1033,7 hPa 0,0 l/m 1,7 km/h (1 Bft) S 189 0 min 0,000 mm 0,0 UV-I 0 W/m 0,6 C 0,7 C 4,8 km/h (1 Bft) 98,33 %
08.12.2015 22:35 0,6 C 99 % 1033,7 hPa 0,0 l/m 0,1 km/h (0 Bft) S 189 0 min 0,000 mm 0,0 UV-I 0 W/m 0,5 C 0,6 C 1,6 km/h (1 Bft) 100,00 %
08.12.2015 22:40 0,6 C 99 % 1033,7 hPa 0,0 l/m 0,2 km/h (0 Bft) S 189 0 min 0,000 mm 0,0 UV-I 0 W/m 0,5 C 0,6 C 1,6 km/h (1 Bft) 99,03 %
08.12.2015 22:45 0,7 C 99 % 1033,8 hPa 0,0 l/m 0,3 km/h (0 Bft) S 189 0 min 0,000 mm 0,0 UV-I 0 W/m 0,6 C 0,7 C 1,6 km/h (1 Bft) 98,45 %
08.12.2015 22:50 0,7 C 99 % 1033,7 hPa 0,0 l/m 0,7 km/h (0 Bft) S 189 0 min 0,000 mm 0,0 UV-I 0 W/m 0,6 C 0,7 C 3,2 km/h (1 Bft) 100,00 %
08.12.2015 22:55 0,7 C 99 % 1033,6 hPa 0,0 l/m 1,4 km/h (1 Bft) S 188 0 min 0,000 mm 0,0 UV-I 0 W/m 0,6 C 0,7 C 4,8 km/h (1 Bft) 99,07 %
08.12.2015 23:00 0,6 C 99 % 1033,8 hPa 0,0 l/m 2,1 km/h (1 Bft) S 176 0 min 0,000 mm 0,0 UV-I 0 W/m 0,5 C 0,6 C 4,8 km/h (1 Bft) 100,00 %
08.12.2015 23:05 0,6 C 98 % 1033,7 hPa 0,0 l/m 2,7 km/h (1 Bft) S-SO 167 0 min 0,000 mm 0,0 UV-I 0 W/m 0,3 C 0,6 C 6,4 km/h (2 Bft) 98,45 %
08.12.2015 23:10 0,5 C 98 % 1033,8 hPa 0,0 l/m 3,3 km/h (1 Bft) S 169 0 min 0,000 mm 0,0 UV-I 0 W/m 0,2 C 0,5 C 6,4 km/h (2 Bft) 100,00 %
08.12.2015 23:15 0,5 C 98 % 1033,8 hPa 0,0 l/m 0,6 km/h (0 Bft) S 169 0 min 0,000 mm 0,0 UV-I 0 W/m 0,2 C 0,5 C 3,2 km/h (1 Bft) 99,21 %
08.12.2015 23:20 0,6 C 98 % 1033,8 hPa 0,0 l/m 1,1 km/h (1 Bft) S 169 0 min 0,000 mm 0,0 UV-I 0 W/m 0,3 C 0,6 C 3,2 km/h (1 Bft) 100,00 %
08.12.2015 23:25 0,4 C 99 % 1033,7 hPa 0,0 l/m 2,0 km/h (1 Bft) S 169 0 min 0,000 mm 0,0 UV-I 0 W/m 0,3 C 0,4 C 3,2 km/h (1 Bft) 99,08 %
08.12.2015 23:30 0,5 C 99 % 1033,9 hPa 0,0 l/m 1,5 km/h (1 Bft) S 182 0 min 0,000 mm 0,0 UV-I 0 W/m 0,4 C 0,5 C 3,2 km/h (1 Bft) 100,00 %
08.12.2015 23:35 0,5 C 99 % 1033,9 hPa 0,0 l/m 0,5 km/h (0 Bft) S-SW 205 0 min 0,000 mm 0,0 UV-I 0 W/m 0,4 C 0,5 C 4,8 km/h (1 Bft) 100,00 %
08.12.2015 23:40 0,5 C 99 % 1033,9 hPa 0,0 l/m 1,0 km/h (0 Bft) S-SW 205 0 min 0,000 mm 0,0 UV-I 0 W/m 0,4 C 0,5 C 4,8 km/h (1 Bft) 98,31 %
08.12.2015 23:45 0,5 C 99 % 1033,9 hPa 0,0 l/m 0,9 km/h (0 Bft) S-SW 205 0 min 0,000 mm 0,0 UV-I 0 W/m 0,4 C 0,5 C 3,2 km/h (1 Bft) 100,00 %
08.12.2015 23:50 0,6 C 99 % 1033,9 hPa 0,0 l/m 1,4 km/h (1 Bft) S-SW 205 0 min 0,000 mm 0,0 UV-I 0 W/m 0,5 C 0,6 C 3,2 km/h (1 Bft) 96,49 %
08.12.2015 23:55 0,6 C 99 % 1033,9 hPa 0,0 l/m 0,7 km/h (0 Bft) S-SW 205 0 min 0,000 mm 0,0 UV-I 0 W/m 0,5 C 0,6 C 3,2 km/h (1 Bft) 93,58 %
_ Min-Zeit 23:15 17:45 14:40 - 21:30 - - - - - - 23:10 08:50 21:30 23:55
Minimum _ 0,4 C 98 % 1033,4 hPa - 0,1 km/h (0 Bft) - - - - - - 0,2 C -8,7 C 1,6 km/h (1 Bft) 93,58 %
_ Max-Zeit 00:45 00:00 00:00 10:05 08:50 - - 00:00 13:00 00:00 12:18 00:45 00:55 06:05 00:20
Maximum _ 2,5 C 99 % 1034,8 hPa 0,2 l/m 20,0 km/h
NO (4 Bft)
- - 0 min 0,026 mm 0,0 UV-I 47 W/m 2,4 C 2,5 C 29,0 km/h
O-NO (5 Bft)
100,00 %
Durchschnitt _ 1,1 C 99 % 1033,9 hPa #0,2 l/m 9,0 km/h (2 Bft) O-NO - #0 min. #0,051 mm 0,0 UV-I 25 W/m 0,9 C -1,9 C 14,7 km/h (3 Bft) 98,39 %